Regional Weather Roundup
Issued by NWS

Home | Current Version | Previous Version | Graphics & Text | Print | Product List | Glossary On
Versions: 1 2 3 4 5 6 7 8 9 10 11 12 13 14 15 16 17 18 19 20 21 22 23 24 25 26 27 28 29
000
ASUS45 KTFX 310310
RWRMT
MONTANA REGIONAL WEATHER ROUNDUP
NATIONAL WEATHER SERVICE GREAT FALLS MT
900 PM MDT TUE AUG 30 2016

NOTE: "FAIR" INDICATES FEW OR NO CLOUDS BELOW 12000 FEET WITH NO
SIGNIFICANT WEATHER AND/OR OBSTRUCTIONS TO VISIBILITY.

MTZ001>007-043-310400-
WEST OF THE DIVIDE

CITY           SKY/WX    TMP DP  RH WIND       PRES   REMARKS
KALISPELL      CLOUDY    71  54  54 E12       29.92R
MISSOULA       CLOUDY    78  40  25 SE9       29.96R
BUTTE          CLOUDY    77  31  18 N10       30.12R
MULLAN PASS    CLOUDY    67  39  35 NW5       30.14R
DEER LODGE       N/A     82  32  16 CALM      30.10R
EUREKA           N/A     75  50  41 CALM      29.89S
HAMILTON         N/A     72  45  37 SE3       29.99S
LIBBY            N/A     77  50  38 CALM      29.87R
PLAINS           N/A     73  50  44 CALM      29.90S
THOMPSON FALLS   N/A     83  46  27 S1        29.92S
$$

MTZ008-052>055-310400-
SOUTHWEST MONTANA

CITY           SKY/WX    TMP DP  RH WIND       PRES   REMARKS
BOZEMAN        CLOUDY    80  34  19 SE12      30.04S
DILLON         CLOUDY    82  17   9 S10       30.05S
W YELLOWSTONE  CLOUDY    64  27  24 SW5       30.24S
ENNIS          CLEAR     66  25  20 NE3       30.15R
THREE FORKS      N/A     74 -42   1 CALM      30.03R
TWIN BRIDGES     N/A     81  32  17 N6        30.04S
$$

MTZ009-010-012-014-046-048-049-054-310400-
EAST SLOPES AND CENTRAL MONTANA

CITY           SKY/WX    TMP DP  RH WIND       PRES   REMARKS
CUT BANK       CLOUDY    77  45  32 E12       30.03S
GREAT FALLS    CLOUDY    78  49  35 E12       30.02S
MALMSTROM AFB  MOCLDY    73  50  45 SE3       30.02S
HELENA         CLOUDY    79  37  22 W9        30.01R
CHOTEAU          N/A     73  45  35 SE5       30.07S
CONRAD           N/A     74  51  44 NE3       30.07R
$$

MTZ011-013-016-021-045-047-050-051-310400-
NORTH CENTRAL MONTANA

CITY           SKY/WX    TMP DP  RH WIND       PRES   REMARKS
HAVRE          CLEAR     73  54  51 E10       30.02R
LEWISTOWN      CLOUDY    72  49  44 SE9       30.11R
N BAR RANCH      N/A     66  46  48 W5        30.16R
CHINOOK          N/A     73  57  56 E3        30.02R
$$

MTZ017>020-022>027-061-062-310400-
NORTHEAST MONTANA

CITY           SKY/WX    TMP DP  RH WIND       PRES   REMARKS
GLASGOW        CLEAR     76  58  53 E14       30.04R
JORDAN           N/A     77  58  51 NE10      30.02F
SIDNEY         CLOUDY    73  55  53 E7        30.10
WOLF POINT     CLEAR     76  57  51 E10       30.07R
PLENTYWOOD       N/A     73  45  35 E8        30.14R
POPLAR           N/A     75  55  50 E12       30.08R
SCOBEY           N/A     74  51  44 E10       30.11R
$$

MTZ028>42-056>058-310400-
SOUTHCENTRAL AND SOUTHEAST MONTANA

CITY           SKY/WX    TMP DP  RH WIND       PRES   REMARKS
BAKER          CLEAR     71  59  65 SE16      30.12R
BILLINGS       PTCLDY    78  45  30 N8        30.05S
LIVINGSTON     CLOUDY    78  38  23 E14       30.08S
MILES CITY     CLEAR     83  55  38 SE15      30.01R
EKALAKA          N/A     73  54  51 SE9       30.11S
FORSYTH          N/A     79  48  34 SE5       30.00R
LAUREL           N/A     77  42  28 N1        30.04R
ROUNDUP          N/A     76  46  34 N2        29.99R
$$

REGIONAL REPORTS...DAKOTAS

CITY           SKY/WX    TMP DP  RH WIND       PRES   REMARKS
WILLISTON      CLEAR     75  49  39 E7        30.14R
MINOT          CLEAR     65  50  58 E6        30.18R
DICKINSON      PTCLDY    67  53  61 E12       30.13S
CROSBY           N/A     57  45  62 SE5       30.18R
WATFORD CITY     N/A     68  50  52 E10       30.14S
BISMARCK       CLOUDY    68  52  56 E6        30.18R
GRAND FORKS    PTCLDY    61  55  81 NE6       30.20R
FARGO          PTCLDY    64  57  78 CALM      30.19S
BUFFALO SD       N/A     74  58  57 E12       30.10R
RAPID CITY     CLOUDY    68  57  68 E9        30.19R
$$

REGIONAL REPORTS...WYOMING/IDAHO/WASHINGTON

CITY           SKY/WX    TMP DP  RH WIND       PRES   REMARKS
GILLETTE       CLEAR     75  44  33 SE14      30.19R
SHERIDAN       CLEAR     76  33  21 S12       30.08R
BUFFALO WY     CLEAR     75  32  20 S14       30.20R
CODY           CLOUDY    73  27  17 S3        30.15R
YELLOWSTONE LA   N/A     58  34  40 CALM      30.36S
IDAHO FALLS    CLOUDY    69  40  34 NE3       30.06S
SALMON         MOCLDY    75  37  25 S10       29.99R
BOISE          PTCLDY    80  36  20 NW8       29.89R
SPOKANE        CLOUDY    77  43  29 W12       29.92S
$$

REGIONAL REPORTS...ALBERTA

CITY           SKY/WX    TMP DP  RH WIND       PRES   REMARKS
EDMONTON       PTCLDY    63  52  67 E10       30.05S
CALGARY        MOCLDY    68  57  68 SE10      30.03S
LETHBRIDGE     CLOUDY    72  55  56 E9        29.98S
MEDICINE HAT   MOCLDY    73  52  46 E5        29.99S
WATERTON GATE    N/A     61  57  88 CALM        N/A
MILK RIVER       N/A     72  50  46 SE10        N/A
ONEFOUR          N/A     70  46  43 E9          N/A
$$

REGIONAL REPORTS...SASKATCHEWAN

CITY           SKY/WX    TMP DP  RH WIND       PRES   REMARKS
SWIFT CURRENT  CLEAR     66  54  63 E13       30.11R
REGINA         CLEAR     68  52  56 E17G23    30.16R
SASKATOON      PTCLDY    61  48  63 E9        30.21R
CYPRESS HILLS    N/A     68  48  49 SE7         N/A
VAL MARIE        N/A     72  55  56 E12         N/A
ROCKGLEN         N/A     70  54  56 SE12G17     N/A
ASSINIBOIA       N/A     64  50  59 E9          N/A
$$




USA.gov is the U.S. government's official web portal to all federal, state and local government web resources and services.